{"data":{"norad_id":53738,"epoch":"2026-09-20T21:50:01.104000Z","epoch_age_seconds":48651,"freshness":"FRESH","line1":"1 53738U 22107AQ  26263.90973500  .00000185  00000+0  16626-4 0  9998","line2":"2 53738  53.1595  91.7365 0001288  93.1996 266.9154 15.34386134224125","mean_motion":15.34386134,"eccentricity":0.0001288,"inclination_deg":53.1595,"raan_deg":91.7365,"arg_perigee_deg":93.1996,"mean_anomaly_deg":266.9154,"bstar":1.6626e-5,"rev_number":22412,"period_min":93.848606168387,"perigee_km":461.86334766042,"apogee_km":463.62555872276,"semimajor_km":6840.8814531916,"source":"CELESTRAK","updated_at":"2026-09-21T09:00:32.989102Z"}}